Printer-friendly version

IAU Minor Planet Center

Minor Planet Center

MPEC 2006-U76 : 2006 UY215

The following Minor Planet Electronic Circular may be linked-to from your own Web pages, but must not otherwise be redistributed electronically.


Read MPEC 2006-U75 Read MPEC 2006-U77


M.P.E.C. 2006-U76                                Issued 2006 Oct. 30, 15:16 UT

     The Minor Planet Electronic Circulars contain information on unusual
         minor planets and routine data on comets.  They are published
   on behalf of Commission 20 of the International Astronomical Union by the
          Minor Planet Center, Smithsonian Astrophysical Observatory,
                          Cambridge, MA 02138, U.S.A.

             Prepared using the Tamkin Foundation Computer Network

                              MPC@CFA.HARVARD.EDU
          URL http://cfa-www.harvard.edu/iau/mpc.html  ISSN 1523-6714

                                  2006 UY215

Observations:
     K06UL5Y* C2006 10 28.30735 04 39 25.92 +21 09 25.2          17.4   EU076704
     K06UL5Y  C2006 10 28.31910 04 39 43.91 +21 07 16.9          17.8   EU076704
     K06UL5Y  C2006 10 28.33089 04 40 02.19 +21 05 08.2          17.6   EU076704
     K06UL5Y  C2006 10 28.34285 04 40 20.56 +21 02 55.7          18.0   EU076704
     K06UL5Y  C2006 10 29.37028 05 11 49.25 +17 08 49.8          18.3   EU076704
     K06UL5Y  C2006 10 29.38266 05 12 13.92 +17 05 25.7          18.7   EU076704
     K06UL5Y  C2006 10 29.39452 05 12 37.65 +17 02 09.2          19.0   EU076704
     K06UL5Y  C2006 10 29.40632 05 13 01.40 +16 58 52.2          18.3   EU076704
     K06UL5Y  C2006 10 29.41812 05 13 25.06 +16 55 35.5          18.4   EU076704
     K06UL5Y  C2006 10 29.93587 05 32 52.15 +14 14 50.9          17.2 V EU076A17
     K06UL5Y  C2006 10 29.94975 05 33 24.50 +14 10 12.2          17.7 V EU076A17
     K06UL5Y  C2006 10 29.95418 05 33 34.91 +14 08 43.4          17.4 V EU076A17
     K06UL5Y  C2006 10 29.95844 05 33 44.88 +14 07 17.3          17.6 V EU076A17
     K06UL5Y  C2006 10 30.29004 05 47 24.38 +12 08 44.1          17.3 R EU076734
     K06UL5Y  C2006 10 30.29057 05 47 25.70 +12 08 32.5          17.8 R EU076734
     K06UL5Y  C2006 10 30.29110 05 47 27.04 +12 08 19.6          17.7 R EU076734
     K06UL5Y  C2006 10 30.29324 05 47 32.35 +12 07 32.1          18.1 R EU076734
     K06UL5Y 5C2006 10 30.45649905 54 29.694+11 04 14.12         17.2 R EU076673
     K06UL5Y 5C2006 10 30.45985505 54 38.260+11 02 53.79                EU076673
     K06UL5Y 5C2006 10 30.46645305 54 55.175+11 00 14.39                EU076673
     K06UL5Y 5C2006 10 30.46980905 55 03.762+10 58 53.88                EU076673
     K06UL5Y 5C2006 10 30.47455405 55 15.936+10 56 59.02                EU076673
     K06UL5Y 5C2006 10 30.48068905 55 31.688+10 54 30.21                EU076673
     K06UL5Y  C2006 10 30.56162 05 59 18.86 +10 26 56.1          16.7 R EU076474
     K06UL5Y  C2006 10 30.56231 05 59 20.70 +10 26 39.5          17.1 R EU076474
     K06UL5Y UC2006 10 30.56324 05 59 23.10 +10 26 15.5          17.1 R EU076474

Observer details:
474 Mount John Observatory, Lake Tekapo.  Observer A. C. Gilmore.  0.6-m f/6.4
    reflector + CCD.
673 Table Mountain Observatory, Wrightwood.  Observer J. Young.  0.61-m f/16
    Cassegrain + CCD.
704 Lincoln Laboratory ETS, New Mexico.  Observers M. Bezpalko, L. Manguso,
    D. Torres, R. Kracke, H. Love, G. Spitz, J. Kistler.  Measurers J. Stuart,
    J. Kommers.  1.0-m f/2.15 reflector + CCD.
734 Farpoint Observatory.  Observer D. Tibbets.  0.7-m reflector + CCD.
A17 Guidestar Observatory, Weinheim.  Observers M. Emmerich, S. Melchert.
    0.36-m f/6 Schmidt-Cassegrain + CCD.

Orbital elements:
2006 UY215                                               Earth MOID = 0.0136 AU
Epoch 2006 Sept. 22.0 TT = JDT 2454000.5                MPC
M 303.69302              (2000.0)            P               Q
n   0.60636109     Peri.  262.71005     -0.47012972     -0.87744994
a   1.3824470      Node   215.83540     +0.86028239     -0.43147384
e   0.4593685      Incl.    9.35651     +0.19721119     -0.20955172
P   1.63           H   23.1           G   0.15           U   7
Residuals in seconds of arc
061028 704  0.7+  0.1-    061029 A17  0.2-  0.3-    061030 673  0.6-  0.3+
061028 704  0.8-  0.4-    061029 A17  1.2-  0.5-    061030 673  0.1-  0.1-
061028 704  0.6+  0.2+    061029 A17  0.4-  0.0     061030 673  0.3-  0.4+
061028 704  0.9-  0.2-    061029 A17  0.3-  0.2-    061030 673  0.2-  0.2+
061029 704  0.9+  0.8+    061030 734  0.4+  0.1-    061030 673  0.1-  0.0
061029 704  0.1+  0.3+    061030 734  0.4+  0.3+    061030 474  0.4+  0.1-
061029 704  0.1-  0.1+    061030 734  0.7+  0.6-    061030 474  0.6+  0.3+
061029 704  0.9+  0.4-    061030 734  0.2+  0.3+    061030 474  0.2-  0.8-
061029 704  0.4-  0.5+    061030 673  0.4-  0.0

Ephemeris:
2006 UY215               a,e,i = 1.38, 0.46, 9                   q = 0.7474
Date    TT    R. A. (2000) Decl.     Delta      r     Elong.  Phase     V
2006 10 22    03 08.80   +29 05.0    0.0897   1.076   153.4    24.5    19.2
2006 10 23    03 16.81   +28 36.0    0.0818   1.069   153.2    24.9    19.0
2006 10 24    03 26.33   +27 57.7    0.0741   1.061   152.7    25.5    18.7
2006 10 25    03 37.82   +27 06.7    0.0665   1.054   151.9    26.4    18.5
2006 10 26    03 51.88   +25 57.4    0.0591   1.046   150.5    27.9    18.3
2006 10 27    04 09.36   +24 20.9    0.0520   1.039   148.3    30.2    18.1
2006 10 28    04 31.40   +22 03.8    0.0453   1.031   144.8    33.8    17.9
2006 10 29    04 59.48   +18 45.0    0.0392   1.024   139.5    39.1    17.7
2006 10 30    05 35.22   +13 56.1    0.0339   1.016   131.7    46.8    17.6
2006 10 31    06 19.75   +07 10.8    0.0300   1.009   120.8    57.7    17.6
2006 11 01    07 12.21   -01 21.7    0.0280   1.001   107.0    71.5    17.8
2006 11 02    08 08.49   -10 21.9    0.0282   0.994    92.0    86.4    18.4
2006 11 03    09 02.36   -18 00.3    0.0307   0.986    78.3    99.9    19.1
2006 11 04    09 48.97   -23 26.9    0.0349   0.979    67.5   110.6    20.0
2006 11 05    10 26.79   -26 58.2    0.0403   0.972    59.4   118.5    20.8
2006 11 06    10 56.62   -29 10.6    0.0466   0.964    53.6   124.2    21.5
2006 11 07    11 20.08   -30 33.6    0.0533   0.957    49.3   128.3    22.2
2006 11 08    11 38.68   -31 26.3    0.0604   0.950    46.1   131.2    22.7
2006 11 09    11 53.66   -32 00.5    0.0678   0.943    43.8   133.4    23.2
2006 11 10    12 05.93   -32 22.8    0.0753   0.936    42.0   134.9    23.6
2006 11 11    12 16.13   -32 37.4    0.0830   0.929    40.6   136.1    23.9

Timothy B. Spahr             (C) Copyright 2006 MPC           M.P.E.C. 2006-U76

Read MPEC 2006-U75 Read MPEC 2006-U77


Our Web policy. Index to the CBAT/MPC/ICQ pages.


Valid HTML 4.01!